Regional Weather Roundup
Issued by NWS Jackson, KY

Home | Current Version | Previous Version | Text Only | Print | Product List | Glossary On
Versions: 1 2 3 4 5 6 7 8 9 10 11 12 13 14 15 16 17 18 19 20 21 22 23 24 25 26 27 28
000
ASUS43 KJKL 172110
RWRJKL

EAST KENTUCKY HOURLY WEATHER ROUNDUP
NATIONAL WEATHER SERVICE JACKSON KY
500 PM EDT TUE OCT 17 2017

NOTE: "FAIR" INDICATES FEW OR NO CLOUDS BELOW 12,000 FEET WITH
NO SIGNIFICANT WEATHER AND/OR OBSTRUCTIONS TO VISIBILITY.

* THESE REPORTS ARE NOT UNDER NWS QUALITY CONTROL AND MAY NOT
  REPORT WEATHER SUCH AS PRECIPITATION AND FOG.

KYZ079-080-083-085-087-088-110-112-115-119-120-172200
...EASTERN KENTUCKY...

CITY           SKY/WX    TMP DP  RH WIND       PRES   REMARKS
JACKSON        SUNNY     64  38  38 CALM      30.28F
LONDON         SUNNY     64  36  35 CALM      30.28F
SOMERSET*      SUNNY     64  36  34 CALM      30.29F
MONTICELLO*    SUNNY     65  40  39 N8        30.29F
WILLIAMSBURG*  CLEAR     64  39  39 CALM      30.27F
MIDDLESBORO*   SUNNY     65  38  36 CALM      30.28F
HARLAN APT*    CLEAR     64  36  34 CALM      30.27F
PIKE CO APT*     N/A     62  39  43 CALM      30.28F
BIG SANDY APT* CLEAR     63  41  44 S3        30.29S
MOREHEAD APT*  CLEAR     64  36  34 CALM      30.30F
$$

KYZ035-036-041-042-044-050-067-078-099-172200
...CENTRAL KENTUCKY...

CITY           SKY/WX    TMP DP  RH WIND       PRES   REMARKS
MT STERLING*   SUNNY     64  39  39 CALM      30.30F
FLEMING/MASON* SUNNY     64  40  40 S3        30.29F
DANVILLE*      SUNNY     64  37  36 CALM      30.29F
LEXINGTON      SUNNY     64  41  42 S6        30.28F
FRANKFORT      SUNNY     64  38  38 VRB3      30.27S
LOUISVILLE     MOSUNNY   66  38  35 VRB6      30.27F
LEBANON*         N/A     64  39  39 CALM      30.28S HAZE
GLASGOW*       CLOUDY    66  39  37 CALM      30.27S
BOWLING GREEN  CLOUDY    68  43  40 SE3       30.27F
$$

KYZ091>093-OHZ055-061-077-WVZ005-015-034-035-042-172200
...SOUTHERN OHIO/WEST VIRGINIA...

CITY           SKY/WX    TMP DP  RH WIND       PRES   REMARKS
COVINGTON      SUNNY     65  40  39 VRB5      30.27S
COLUMBUS       MOSUNNY   66  38  35 SW14      30.25F
DAYTON         MOSUNNY   64  41  42 SW8       30.26F
WILMINGTON     SUNNY     63  41  44 SW8       30.26F
HUNTINGTON     SUNNY     65  37  35 VRB5      30.28F
CHARLESTON     SUNNY     65  33  30 VRB3      30.28F
PINEVILLE*     SUNNY     62  37  40 MISG      30.32F
BECKLEY        SUNNY     60  31  33 NW5       30.29F
BLUEFIELD      SUNNY     58  29  33 CALM      30.29F
LOGAN CO APT*    N/A     63  36  36 CALM      30.28F
$$

VAZ002-007-008-TNZ017-027-036-066-071-172200
...SOUTHWEST VIRGINIA/EAST TENNESSEE...

CITY           SKY/WX    TMP DP  RH WIND       PRES   REMARKS
WISE*          SUNNY     61  36  39 CALM      30.30F
JONESVILLE*      N/A     66  36  32 CALM      30.29F
ABINGDON*      SUNNY     65  35  33 E3        30.28S
BRISTOL        SUNNY     66  38  35 CALM      30.27F
MORRISTOWN*    CLEAR     64  37  36 CALM      30.27S
SEVIERVILLE*   CLEAR     66  41  39 CALM      30.26F
KNOXVILLE      SUNNY     66  41  40 NE5       30.26F
LAFOLLETTE*    CLEAR     64  39  39 SE3       30.31F
OAK RIDGE      SUNNY     66  41  40 CALM      30.28F
CROSSVILLE     SUNNY     63  35  35 S3        30.28F
NASHVILLE      MOSUNNY   68  36  30 E3        30.26F
$$

...KEY TO REMARKS...
VSB - VISIBILITY IN MILES
WCI - WIND CHILL INDEX
HX  - HEAT INDEX

$$




USA.gov is the U.S. government's official web portal to all federal, state and local government web resources and services.